Overview Statistics Trail Chart Weather Telemetry Raw packets
 

This is the latest recevied weather packets stored in our database for station/object WW6Q. If no packets are shown the sender has not sent any weather packets the latest 10 day(s).

<< 88 89 90 91 92 93 94 >>
Time Temp. Humidity Pressure Rain* Wind** Luminosity Snow
1787975721 16.11° C 91% 1020.9 hPa 0 mm - 0 W/m² -
1787975421 16.67° C 90% 1020.8 hPa 0 mm - 0 W/m² -
1787975120 16.67° C 89% 1020.8 hPa 0 mm - 0 W/m² -
1787974819 16.11° C 92% 1020.8 hPa 0 mm - 0 W/m² -
1787974519 16.11° C 94% 1020.7 hPa 0 mm - 0 W/m² -
1787974214 16.11° C 94% 1020.9 hPa 0 mm - 0 W/m² -
1787973913 16.11° C 94% 1020.8 hPa 0 mm - 0 W/m² -
1787973608 16.67° C 92% 1020.8 hPa 0 mm - 0 W/m² -
1787973310 16.67° C 92% 1020.7 hPa 0 mm - 0 W/m² -
1787973002 16.67° C 93% 1020.9 hPa 0 mm - 0 W/m² -
1787972698 16.67° C 93% 1020.8 hPa 0 mm - 0 W/m² -
1787972396 16.67° C 93% 1021.1 hPa 0 mm - 0 W/m² -
1787972098 16.67° C 94% 1020.9 hPa 0 mm - 0 W/m² -
1787971792 16.67° C 94% 1020.9 hPa 0 mm - 0 W/m² -
1787971488 16.67° C 93% 1020.9 hPa 0 mm - 0 W/m² -
1787971184 16.67° C 93% 1020.8 hPa 0 mm - 0 W/m² -
1787970883 16.67° C 92% 1020.9 hPa 0 mm - 0 W/m² -
1787970577 17.22° C 92% 1020.8 hPa 0 mm - 0 W/m² -
1787970273 17.22° C 93% 1020.8 hPa 0 mm - 0 W/m² -
1787969971 17.22° C 92% 1020.7 hPa 0 mm - 0 W/m² -
1787969671 17.22° C 91% 1020.9 hPa 0 mm - 0 W/m² -
1787969370 17.22° C 92% 1020.6 hPa 0 mm - 0 W/m² -
1787969070 17.22° C 93% 1020.4 hPa 0 mm - 0 W/m² -
1787968765 17.22° C 94% 1020.5 hPa 0 mm - 0 W/m² -
1787968464 17.22° C 94% 1020.6 hPa 0 mm - 0 W/m² -

* Rain latest hour (hover to see other rain measurements)
** Current wind speed in m/s (hover to see current wind gust speed)